Tracking 18957 objects as of 22-Jan-2018
HD Live streaming from Space Station
objects crossing your sky now

FENGYUN 1C DEB

Track FENGYUN 1C DEB now!
10-day predictions


NORAD ID: 31887
Int'l Code: 1999-025CKN
Perigee: 761.4 km
Apogee: 813.6 km
Inclination: 99.5 °
Period: 100.5 minutes
Semi major axis: 7158 km
RCS: 0.0075 m2 (small)
Launch date: May 10, 1999
Source: People's Republic of China (PRC)
Launch site: Taiyaun Space Center, China (TSC)

Note: This is SATELLITE DEBRIS
aabbcc
Your satellite tracking list
Your tracking list is empty




NASA's NSSDC Master Catalog

Two Line Element Set (TLE):
1 31887U 99025CKN 18021.62906764  .00000922  00000-0  35062-3 0  9996
2 31887  99.5471  75.3227 0036456  42.7631 110.4570 14.33405734552292
Source of the keplerian elements: AFSPC